Time,TemperatureF,DewpointF,PressureIn,WindDirection,WindDirectionDegrees,WindSpeedMPH,WindSpeedGustMPH,Humidity,HourlyPrecipIn,Conditions,Clouds,dailyrainin,SolarRadiationWatts/m^2,SoftwareType,DateUTC
2013-05-25 00:00:00,42.0,42.0,-100.00,SW,232,4.0,10.0,100,0.01,,,0.17,0.000000,,2013-05-25 07:00:00,
2013-05-25 00:22:00,42.0,42.0,-100.00,SW,232,4.0,10.0,100,0.01,,,0.17,0.000000,,2013-05-25 07:22:00,
2013-05-25 00:32:00,42.0,42.0,-100.00,SW,232,4.0,10.0,100,0.01,,,0.17,0.000000,,2013-05-25 07:32:00,
2013-05-25 00:42:00,42.0,42.0,-100.00,SW,232,4.0,10.0,100,0.01,,,0.17,0.000000,,2013-05-25 07:42:00,
2013-05-25 00:52:00,42.0,42.0,-100.00,SW,232,4.0,10.0,100,0.01,,,0.17,0.000000,,2013-05-25 07:52:00,
2013-05-25 01:00:00,41.0,41.0,-100.00,SW,224,6.0,9.0,100,0.00,,,0.17,0.000000,,2013-05-25 08:00:00,
2013-05-25 01:23:00,41.0,41.0,-100.00,SW,224,6.0,9.0,100,0.00,,,0.17,0.000000,,2013-05-25 08:23:00,
2013-05-25 01:32:00,41.0,41.0,-100.00,SW,224,6.0,9.0,100,0.00,,,0.17,0.000000,,2013-05-25 08:32:00,
2013-05-25 01:42:00,41.0,41.0,-100.00,SW,224,6.0,9.0,100,0.00,,,0.17,0.000000,,2013-05-25 08:42:00,
2013-05-25 01:52:00,41.0,41.0,-100.00,SW,224,6.0,9.0,100,0.00,,,0.17,0.000000,,2013-05-25 08:52:00,
2013-05-25 02:00:00,39.0,39.0,-100.00,SW,227,5.0,10.0,100,0.00,,,0.17,0.000000,,2013-05-25 09:00:00,
2013-05-25 02:21:00,39.0,39.0,-100.00,SW,227,5.0,10.0,100,0.00,,,0.17,0.000000,,2013-05-25 09:21:00,
2013-05-25 02:33:00,39.0,39.0,-100.00,SW,227,5.0,10.0,100,0.00,,,0.17,0.000000,,2013-05-25 09:33:00,
2013-05-25 02:43:00,39.0,39.0,-100.00,SW,227,5.0,10.0,100,0.00,,,0.17,0.000000,,2013-05-25 09:43:00,
2013-05-25 02:53:00,39.0,39.0,-100.00,SW,227,5.0,10.0,100,0.00,,,0.17,0.000000,,2013-05-25 09:53:00,
2013-05-25 03:00:00,40.0,40.0,-100.00,WSW,245,6.0,9.0,100,0.00,,,0.17,0.000000,,2013-05-25 10:00:00,
2013-05-25 03:23:00,40.0,40.0,-100.00,WSW,245,6.0,9.0,100,0.00,,,0.17,0.000000,,2013-05-25 10:23:00,
2013-05-25 03:33:00,40.0,40.0,-100.00,WSW,245,6.0,9.0,100,0.00,,,0.17,0.000000,,2013-05-25 10:33:00,
2013-05-25 03:42:00,40.0,40.0,-100.00,WSW,245,6.0,9.0,100,0.00,,,0.17,0.000000,,2013-05-25 10:42:00,
2013-05-25 03:52:00,40.0,40.0,-100.00,WSW,245,6.0,9.0,100,0.00,,,0.17,0.000000,,2013-05-25 10:52:00,
2013-05-25 04:00:00,39.0,39.0,-100.00,SW,217,6.0,9.0,100,0.00,,,0.17,0.000000,,2013-05-25 11:00:00,
2013-05-25 04:22:00,39.0,39.0,-100.00,SW,217,6.0,9.0,100,0.00,,,0.17,0.000000,,2013-05-25 11:22:00,
2013-05-25 04:32:00,39.0,39.0,-100.00,SW,217,6.0,9.0,100,0.00,,,0.17,0.000000,,2013-05-25 11:32:00,
2013-05-25 04:42:00,39.0,39.0,-100.00,SW,217,6.0,9.0,100,0.00,,,0.17,0.000000,,2013-05-25 11:42:00,
2013-05-25 04:52:00,39.0,39.0,-100.00,SW,217,6.0,9.0,100,0.00,,,0.17,0.000000,,2013-05-25 11:52:00,
2013-05-25 05:00:00,40.0,40.0,-100.00,SW,215,5.0,8.0,100,0.00,,,0.17,0.000000,,2013-05-25 12:00:00,
2013-05-25 05:22:00,40.0,40.0,-100.00,SW,215,5.0,8.0,100,0.00,,,0.17,0.000000,,2013-05-25 12:22:00,
2013-05-25 05:32:00,40.0,40.0,-100.00,SW,215,5.0,8.0,100,0.00,,,0.17,0.000000,,2013-05-25 12:32:00,
2013-05-25 05:42:00,40.0,40.0,-100.00,SW,215,5.0,8.0,100,0.00,,,0.17,0.000000,,2013-05-25 12:42:00,
2013-05-25 05:52:00,40.0,40.0,-100.00,SW,215,5.0,8.0,100,0.00,,,0.17,0.000000,,2013-05-25 12:52:00,
2013-05-25 06:00:00,39.0,39.0,-100.00,SW,226,4.0,8.0,100,0.00,,,0.17,3.000000,,2013-05-25 13:00:00,
2013-05-25 06:22:00,39.0,39.0,-100.00,SW,226,4.0,8.0,100,0.00,,,0.17,3.000000,,2013-05-25 13:22:00,
2013-05-25 06:32:00,39.0,39.0,-100.00,SW,226,4.0,8.0,100,0.00,,,0.17,3.000000,,2013-05-25 13:32:00,
2013-05-25 06:42:00,39.0,39.0,-100.00,SW,226,4.0,8.0,100,0.00,,,0.17,3.000000,,2013-05-25 13:42:00,
2013-05-25 06:52:00,39.0,39.0,-100.00,SW,226,4.0,8.0,100,0.00,,,0.17,3.000000,,2013-05-25 13:52:00,
2013-05-25 07:00:00,40.0,40.0,-100.00,SSW,213,7.0,10.0,100,0.01,,,0.18,29.000000,,2013-05-25 14:00:00,
2013-05-25 07:22:00,40.0,40.0,-100.00,SSW,213,7.0,10.0,100,0.01,,,0.18,29.000000,,2013-05-25 14:22:00,
2013-05-25 07:32:00,40.0,40.0,-100.00,SSW,213,7.0,10.0,100,0.01,,,0.18,29.000000,,2013-05-25 14:32:00,
2013-05-25 07:42:00,40.0,40.0,-100.00,SSW,213,7.0,10.0,100,0.01,,,0.18,29.000000,,2013-05-25 14:42:00,
2013-05-25 07:52:00,40.0,40.0,-100.00,SSW,213,7.0,10.0,100,0.01,,,0.18,29.000000,,2013-05-25 14:52:00,
2013-05-25 08:00:00,41.0,41.0,-100.00,SSW,210,6.0,10.0,100,0.02,,,0.20,65.000000,,2013-05-25 15:00:00,
2013-05-25 08:22:00,41.0,41.0,-100.00,SSW,210,6.0,10.0,100,0.02,,,0.20,65.000000,,2013-05-25 15:22:00,
2013-05-25 08:33:00,41.0,41.0,-100.00,SSW,210,6.0,10.0,100,0.02,,,0.20,65.000000,,2013-05-25 15:33:00,
2013-05-25 08:43:00,41.0,41.0,-100.00,SSW,210,6.0,10.0,100,0.02,,,0.20,65.000000,,2013-05-25 15:43:00,
2013-05-25 08:53:00,41.0,41.0,-100.00,SSW,210,6.0,10.0,100,0.02,,,0.20,65.000000,,2013-05-25 15:53:00,
2013-05-25 09:00:00,43.0,43.0,-100.00,SSW,210,6.0,10.0,100,0.00,,,-99.99,163.000000,,2013-05-25 16:00:00,
2013-05-25 09:23:00,43.0,43.0,-100.00,SSW,210,6.0,10.0,100,0.00,,,-99.99,163.000000,,2013-05-25 16:23:00,
2013-05-25 09:33:00,43.0,43.0,-100.00,SSW,210,6.0,10.0,100,0.00,,,-99.99,163.000000,,2013-05-25 16:33:00,
2013-05-25 09:42:00,43.0,43.0,-100.00,SSW,210,6.0,10.0,100,0.00,,,-99.99,163.000000,,2013-05-25 16:42:00,
2013-05-25 09:52:00,43.0,43.0,-100.00,SSW,210,6.0,10.0,100,0.00,,,-99.99,163.000000,,2013-05-25 16:52:00,
2013-05-25 10:00:00,46.0,46.0,-100.00,SSW,210,5.0,10.0,100,0.00,,,0.20,313.000000,,2013-05-25 17:00:00,
2013-05-25 10:22:00,46.0,46.0,-100.00,SSW,210,5.0,10.0,100,0.00,,,0.20,313.000000,,2013-05-25 17:22:00,
2013-05-25 10:33:00,46.0,46.0,-100.00,SSW,210,5.0,10.0,100,0.00,,,0.20,313.000000,,2013-05-25 17:33:00,
2013-05-25 10:42:00,46.0,46.0,-100.00,SSW,210,5.0,10.0,100,0.00,,,0.20,313.000000,,2013-05-25 17:42:00,
2013-05-25 10:52:00,46.0,46.0,-100.00,SSW,210,5.0,10.0,100,0.00,,,0.20,313.000000,,2013-05-25 17:52:00,
2013-05-25 11:00:00,45.0,45.0,-100.00,SSW,207,6.0,11.0,100,0.01,,,0.21,309.000000,,2013-05-25 18:00:00,
2013-05-25 11:22:00,45.0,45.0,-100.00,SSW,207,6.0,11.0,100,0.01,,,0.21,309.000000,,2013-05-25 18:22:00,
2013-05-25 11:32:00,45.0,45.0,-100.00,SSW,207,6.0,11.0,100,0.01,,,0.21,309.000000,,2013-05-25 18:32:00,
2013-05-25 11:42:00,45.0,45.0,-100.00,SSW,207,6.0,11.0,100,0.01,,,0.21,309.000000,,2013-05-25 18:42:00,
2013-05-25 11:52:00,45.0,45.0,-100.00,SSW,207,6.0,11.0,100,0.01,,,0.21,309.000000,,2013-05-25 18:52:00,
2013-05-25 12:00:00,47.0,47.0,-100.00,SSW,210,6.0,13.0,99,0.01,,,0.22,358.000000,,2013-05-25 19:00:00,
2013-05-25 12:22:00,47.0,47.0,-100.00,SSW,210,6.0,13.0,99,0.01,,,0.22,358.000000,,2013-05-25 19:22:00,
2013-05-25 12:32:00,47.0,47.0,-100.00,SSW,210,6.0,13.0,99,0.01,,,0.22,358.000000,,2013-05-25 19:32:00,
2013-05-25 12:42:00,47.0,47.0,-100.00,SSW,210,6.0,13.0,99,0.01,,,0.22,358.000000,,2013-05-25 19:42:00,
2013-05-25 12:52:00,47.0,47.0,-100.00,SSW,210,6.0,13.0,99,0.01,,,0.22,358.000000,,2013-05-25 19:52:00,
2013-05-25 13:00:00,49.0,48.0,-100.00,SSW,209,4.0,12.0,98,0.01,,,0.20,446.000000,,2013-05-25 20:00:00,
2013-05-25 13:22:00,49.0,48.0,-100.00,SSW,209,4.0,12.0,98,0.01,,,0.20,446.000000,,2013-05-25 20:22:00,
2013-05-25 13:32:00,49.0,48.0,-100.00,SSW,209,4.0,12.0,98,0.01,,,0.20,446.000000,,2013-05-25 20:32:00,
2013-05-25 13:42:00,49.0,48.0,-100.00,SSW,209,4.0,12.0,98,0.01,,,0.20,446.000000,,2013-05-25 20:42:00,
2013-05-25 13:52:00,49.0,48.0,-100.00,SSW,209,4.0,12.0,98,0.01,,,0.20,446.000000,,2013-05-25 20:52:00,
2013-05-25 14:00:00,46.0,45.0,-100.00,South,189,3.0,10.0,95,0.00,,,0.13,413.000000,,2013-05-25 21:00:00,
2013-05-25 14:22:00,46.0,45.0,-100.00,South,189,3.0,10.0,95,0.00,,,0.13,413.000000,,2013-05-25 21:22:00,
2013-05-25 14:33:00,46.0,45.0,-100.00,South,189,3.0,10.0,95,0.00,,,0.13,413.000000,,2013-05-25 21:33:00,
2013-05-25 14:43:00,46.0,45.0,-100.00,South,189,3.0,10.0,95,0.00,,,0.13,413.000000,,2013-05-25 21:43:00,
2013-05-25 14:53:00,46.0,45.0,-100.00,South,189,3.0,10.0,95,0.00,,,0.13,413.000000,,2013-05-25 21:53:00,
2013-05-25 15:00:00,48.0,47.0,-100.00,East,94,2.0,8.0,97,0.00,,,0.12,315.000000,,2013-05-25 22:00:00,
2013-05-25 15:23:00,48.0,47.0,-100.00,East,94,2.0,8.0,97,0.00,,,0.12,315.000000,,2013-05-25 22:23:00,
2013-05-25 15:33:00,48.0,47.0,-100.00,East,94,2.0,8.0,97,0.00,,,0.12,315.000000,,2013-05-25 22:33:00,
2013-05-25 15:42:00,48.0,47.0,-100.00,East,94,2.0,8.0,97,0.00,,,0.12,315.000000,,2013-05-25 22:42:00,
2013-05-25 15:52:00,48.0,47.0,-100.00,East,94,2.0,8.0,97,0.00,,,0.12,315.000000,,2013-05-25 22:52:00,
2013-05-25 16:00:00,45.0,45.0,-100.00,SSW,199,3.0,9.0,100,0.02,,,0.14,166.000000,,2013-05-25 23:00:00,
2013-05-25 16:22:00,45.0,45.0,-100.00,SSW,199,3.0,9.0,100,0.02,,,0.14,166.000000,,2013-05-25 23:22:00,
2013-05-25 16:32:00,45.0,45.0,-100.00,SSW,199,3.0,9.0,100,0.02,,,0.14,166.000000,,2013-05-25 23:32:00,
2013-05-25 16:42:00,45.0,45.0,-100.00,SSW,199,3.0,9.0,100,0.02,,,0.14,166.000000,,2013-05-25 23:42:00,
2013-05-25 16:52:00,45.0,45.0,-100.00,SSW,199,3.0,9.0,100,0.02,,,0.14,166.000000,,2013-05-25 23:52:00,
2013-05-25 17:00:00,48.0,48.0,-100.00,SSW,207,5.0,9.0,100,0.02,,,0.16,198.000000,,2013-05-26 00:00:00,
2013-05-25 17:22:00,48.0,48.0,-100.00,SSW,207,5.0,9.0,100,0.02,,,0.16,198.000000,,2013-05-26 00:22:00,
2013-05-25 17:32:00,48.0,48.0,-100.00,SSW,207,5.0,9.0,100,0.02,,,0.16,198.000000,,2013-05-26 00:32:00,
2013-05-25 17:42:00,48.0,48.0,-100.00,SSW,207,5.0,9.0,100,0.02,,,0.16,198.000000,,2013-05-26 00:42:00,
2013-05-25 17:52:00,48.0,48.0,-100.00,SSW,207,5.0,9.0,100,0.02,,,0.16,198.000000,,2013-05-26 00:52:00,
2013-05-25 18:00:00,45.0,45.0,-100.00,SSW,208,5.0,10.0,100,0.00,,,0.15,224.000000,,2013-05-26 01:00:00,
2013-05-25 18:21:00,45.0,45.0,-100.00,SSW,208,5.0,10.0,100,0.00,,,0.15,224.000000,,2013-05-26 01:21:00,
2013-05-25 18:32:00,45.0,45.0,-100.00,SSW,208,5.0,10.0,100,0.00,,,0.15,224.000000,,2013-05-26 01:32:00,
2013-05-25 18:42:00,45.0,45.0,-100.00,SSW,208,5.0,10.0,100,0.00,,,0.15,224.000000,,2013-05-26 01:42:00,
2013-05-25 18:52:00,45.0,45.0,-100.00,SSW,208,5.0,10.0,100,0.00,,,0.15,224.000000,,2013-05-26 01:52:00,
2013-05-25 19:00:00,46.0,46.0,-100.00,SSW,207,3.0,8.0,100,0.01,,,0.14,100.000000,,2013-05-26 02:00:00,
2013-05-25 19:21:00,46.0,46.0,-100.00,SSW,207,3.0,8.0,100,0.01,,,0.14,100.000000,,2013-05-26 02:21:00,
2013-05-25 19:32:00,46.0,46.0,-100.00,SSW,207,3.0,8.0,100,0.01,,,0.14,100.000000,,2013-05-26 02:32:00,
2013-05-25 19:42:00,46.0,46.0,-100.00,SSW,207,3.0,8.0,100,0.01,,,0.14,100.000000,,2013-05-26 02:42:00,
2013-05-25 19:52:00,46.0,46.0,-100.00,SSW,207,3.0,8.0,100,0.01,,,0.14,100.000000,,2013-05-26 02:52:00,
2013-05-25 20:00:00,45.0,45.0,-100.00,SSW,203,3.0,8.0,100,0.00,,,0.14,85.000000,,2013-05-26 03:00:00,
2013-05-25 20:22:00,45.0,45.0,-100.00,SSW,203,3.0,8.0,100,0.00,,,0.14,85.000000,,2013-05-26 03:22:00,
2013-05-25 20:33:00,45.0,45.0,-100.00,SSW,203,3.0,8.0,100,0.00,,,0.14,85.000000,,2013-05-26 03:33:00,
2013-05-25 20:43:00,45.0,45.0,-100.00,SSW,203,3.0,8.0,100,0.00,,,0.14,85.000000,,2013-05-26 03:43:00,
2013-05-25 20:53:00,45.0,45.0,-100.00,SSW,203,3.0,8.0,100,0.00,,,0.14,85.000000,,2013-05-26 03:53:00,
2013-05-25 21:00:00,43.0,43.0,-100.00,ENE,77,4.0,8.0,100,0.00,,,0.14,30.000000,,2013-05-26 04:00:00,
2013-05-25 21:23:00,43.0,43.0,-100.00,ENE,77,4.0,8.0,100,0.00,,,0.14,30.000000,,2013-05-26 04:23:00,
2013-05-25 21:33:00,43.0,43.0,-100.00,ENE,77,4.0,8.0,100,0.00,,,0.14,30.000000,,2013-05-26 04:33:00,
2013-05-25 21:42:00,43.0,43.0,-100.00,ENE,77,4.0,8.0,100,0.00,,,0.14,30.000000,,2013-05-26 04:42:00,
2013-05-25 21:52:00,43.0,43.0,-100.00,ENE,77,4.0,8.0,100,0.00,,,0.14,30.000000,,2013-05-26 04:52:00,
2013-05-25 22:00:00,44.0,44.0,-100.00,ENE,71,7.0,10.0,100,0.00,,,0.14,0.000000,,2013-05-26 05:00:00,
2013-05-25 22:22:00,44.0,44.0,-100.00,ENE,71,7.0,10.0,100,0.00,,,0.14,0.000000,,2013-05-26 05:22:00,
2013-05-25 22:32:00,44.0,44.0,-100.00,ENE,71,7.0,10.0,100,0.00,,,0.14,0.000000,,2013-05-26 05:32:00,
2013-05-25 22:42:00,44.0,44.0,-100.00,ENE,71,7.0,10.0,100,0.00,,,0.14,0.000000,,2013-05-26 05:42:00,
2013-05-25 22:52:00,44.0,44.0,-100.00,ENE,71,7.0,10.0,100,0.00,,,0.14,0.000000,,2013-05-26 05:52:00,
2013-05-25 23:00:00,42.0,42.0,-100.00,ENE,78,7.0,11.0,100,0.01,,,0.13,0.000000,,2013-05-26 06:00:00,
2013-05-25 23:22:00,42.0,42.0,-100.00,ENE,78,7.0,11.0,100,0.01,,,0.13,0.000000,,2013-05-26 06:22:00,
2013-05-25 23:32:00,42.0,42.0,-100.00,ENE,78,7.0,11.0,100,0.01,,,0.13,0.000000,,2013-05-26 06:32:00,
2013-05-25 23:42:00,42.0,42.0,-100.00,ENE,78,7.0,11.0,100,0.01,,,0.13,0.000000,,2013-05-26 06:42:00,
2013-05-25 23:52:00,42.0,42.0,-100.00,ENE,78,7.0,11.0,100,0.01,,,0.13,0.000000,,2013-05-26 06:52:00,